Powrót do katalogu

PEGASUS DEB

AktywnyPO
NORAD 39315·DEBRIS·🇺🇸 United States

Wystrzelony May 19, 1994 z Vandenberg Space Force Base

Loading…

Następne Przeloty (najbliższe 24 godziny)

TLE

ŚwieżeSource: Space-Track

Epoka: Sep 14, 2026, 03:44 UTC

1 39315U 94029AFA 26257.15586685  .00000914  00000-0  26719-3 0  9993
2 39315  81.4968 201.4386 0384805 130.5378 232.9986 14.07620473674941

Śledź PEGASUS DEB w czasie rzeczywistym z AllMySat

Download on the App Store